Weather History for KNFL - January, 2013

Change the Weather History Date:

Saturday, January 5, 2013

  Actual Average Record
Temperature  
Mean Temperature 18 °F -  
Max Temperature 30 °F 40 °F 64 °F (1948)
Min Temperature 5 °F 17 °F -8 °F (1971)
Degree Days  
Heating Degree Days 48    
Moisture  
Dew Point 11 °F    
Average Humidity 74    
Maximum Humidity 91    
Minimum Humidity 51    
Precipitation  
Precipitation 0.00 in - - ()
Sea Level Pressure  
Sea Level Pressure 30.15 in    
Wind  
Wind Speed 1 mph (NNE)    
Max Wind Speed 6 mph    
Max Gust Speed -    
Visibility 9 miles    
Events      
Averages and records for this station are not official NWS values.
T = Trace of Precipitation, MM = Missing Value Source: NWS Daily Summary

Daily Weather History Graph

Daily Weather History Graph

Search for Another Location

Airport or City:

Trip Planner

Search our weather history database for the weather conditions in past years. The results will help you decide how hot, cold, wet, or windy it might be!

Date:

Astronomy

Jan. 05, 2013 Rise Set
Actual Time 7:15 AM PST 4:45 PM PST
Civil Twilight 6:45 AM PST 5:15 PM PST
Nautical Twilight 6:11 AM PST 5:49 PM PST
Astronomical Twilight 5:39 AM PST 6:21 PM PST
Moon 12:28 AM PST (1/5) 11:37 AM PST (1/5)
Length of Visible Light 10h 30m
Length of Day
9h 30m
Last Quarter, 43% of the Moon is Illuminated
Jan 5
Last Quarter
Jan 11
New
Jan 18
First Quarter
Jan 26
Full
Feb 3
Last Quarter

Hourly Weather History & Observations

Time (PST) Temp. Windchill Dew Point Humidity Pressure Visibility Wind Dir Wind Speed Gust Speed Precip Events Conditions
12:56 AM 9.0 °F - 6.1 °F 88% 30.23 in 9.0 mi Calm Calm - N/A   Clear
1:56 AM 7.0 °F - 3.9 °F 87% 30.23 in 9.0 mi Calm Calm - N/A   Clear
2:56 AM 8.1 °F - 5.0 °F 87% 30.22 in 9.0 mi Calm Calm - N/A   Clear
3:56 AM 8.1 °F - 3.9 °F 83% 30.21 in 6.0 mi Calm Calm - N/A   Clear
4:56 AM 7.0 °F - 3.0 °F 84% 30.21 in 6.0 mi Calm Calm - N/A   Clear
5:56 AM 5.0 °F - 1.9 °F 87% 30.21 in 4.0 mi Calm Calm - N/A   Clear
6:56 AM 6.1 °F - 3.9 °F 91% 30.22 in 5.0 mi Calm Calm - N/A   Clear
7:56 AM 9.0 °F - 6.1 °F 88% 30.22 in 6.0 mi Calm Calm - N/A   Clear
8:56 AM 15.1 °F - 10.0 °F 80% 30.22 in 10.0 mi Calm Calm - N/A   Clear
9:03 AM 15.8 °F - 10.4 °F 79% 30.34 in 9.0 mi Calm Calm - N/A   Mostly Cloudy
9:56 AM 19.0 °F - 12.0 °F 74% 30.22 in 9.0 mi Calm Calm - N/A   Mostly Cloudy
10:56 AM 23.0 °F 15.8 °F 12.0 °F 63% 30.19 in 10.0 mi ENE 5.8 mph - N/A   Mostly Cloudy
11:56 AM 26.1 °F - 12.9 °F 58% 30.15 in 10.0 mi Calm Calm - N/A   Mostly Cloudy
12:56 PM 28.0 °F 22.8 °F 14.0 °F 56% 30.12 in 10.0 mi NE 4.6 mph - N/A   Mostly Cloudy
1:56 PM 30.0 °F 24.1 °F 14.0 °F 51% 30.11 in 10.0 mi North 5.8 mph - N/A   Mostly Cloudy
2:56 PM 28.9 °F 22.8 °F 14.0 °F 54% 30.10 in 10.0 mi NNE 5.8 mph - N/A   Overcast
3:56 PM 28.0 °F 21.7 °F 15.1 °F 58% 30.09 in 10.0 mi North 5.8 mph - N/A   Overcast
4:56 PM 26.1 °F 20.5 °F 16.0 °F 66% 30.08 in 10.0 mi North 4.6 mph - N/A   Overcast
5:56 PM 25.0 °F 20.7 °F 16.0 °F 69% 30.08 in 10.0 mi NNE 3.5 mph - N/A   Overcast
6:56 PM 23.0 °F 17.0 °F 15.1 °F 72% 30.07 in 10.0 mi NE 4.6 mph - N/A   Clear
7:56 PM 21.9 °F 17.2 °F 15.1 °F 75% 30.06 in 10.0 mi North 3.5 mph - N/A   Clear
8:56 PM 21.9 °F - 16.0 °F 78% 30.06 in 10.0 mi Calm Calm - N/A   Clear
9:56 PM 21.9 °F 15.7 °F 15.1 °F 75% 30.05 in 10.0 mi NNE 4.6 mph - N/A   Clear
10:56 PM 21.9 °F 15.7 °F 16.0 °F 78% 30.04 in 10.0 mi North 4.6 mph - N/A   Clear
11:56 PM 21.9 °F 17.2 °F 15.1 °F 75% 30.02 in 10.0 mi North 3.5 mph - N/A   Overcast